{"data":{"norad_id":52638,"epoch":"2026-05-24T19:27:26.777376Z","epoch_age_seconds":105600,"freshness":"FRESH","line1":"1 52638U 22052AS  26144.81072659  .00000391  00000+0  42680-4 0  9996","line2":"2 52638  53.2161 287.3980 0001414  90.4511 269.6643 15.08838270223297","mean_motion":15.0883827,"eccentricity":0.0001414,"inclination_deg":53.2161,"raan_deg":287.398,"arg_perigee_deg":90.4511,"mean_anomaly_deg":269.6643,"bstar":4.268e-5,"rev_number":22329,"period_min":95.437664104318,"perigee_km":538.77048785235,"apogee_km":540.72686592177,"semimajor_km":6917.8856768871,"source":"CELESTRAK","updated_at":"2026-05-25T13:38:17.205628Z"}}